• MPC Preparation (Info)

  • MPEC 2014-X22 : 2014 WM368

    The following Minor Planet Electronic Circular may be linked-to from your own Web pages, but must not otherwise be redistributed electronically.

    A form allowing access to any MPEC is at the bottom of this page.


    Read MPEC 2014-X21 Read MPEC 2014-X23


    M.P.E.C. 2014-X22                                Issued 2014 Dec. 3, 19:42 UT
    
         The Minor Planet Electronic Circulars contain information on unusual
             minor planets and routine data on comets.  They are published
       on behalf of Commission 20 of the International Astronomical Union by the
              Minor Planet Center, Smithsonian Astrophysical Observatory,
                              Cambridge, MA 02138, U.S.A.
    
                 Prepared using the Tamkin Foundation Computer Network
    
                                  MPC@CFA.HARVARD.EDU
                URL https://www.minorplanetcenter.net/    ISSN 1523-6714
    
                                      2014 WM368
    
    Observations:
         K14Wa8M* C2014 11 27.45858 04 40 16.351+00 08 01.56         21.4 wLEX022F51
         K14Wa8M  C2014 11 27.47105 04 40 14.417+00 08 21.13         21.6 wLEX022F51
         K14Wa8M  C2014 11 27.48357 04 40 12.464+00 08 40.49         21.6 wLEX022F51
         K14Wa8M  C2014 11 27.49609 04 40 10.529+00 09 00.07         21.8 wLEX022F51
         K14Wa8M KC2014 11 29.25227 04 35 59.46 +00 56 28.6          21.0 RoEX022291
         K14Wa8M KC2014 11 29.25698 04 35 58.67 +00 56 36.2          21.3 RoEX022291
         K14Wa8M KC2014 11 29.26169 04 35 57.93 +00 56 44.1          21.2 RoEX022291
         K14Wa8M KC2014 12 02.38321 04 28 06.63 +02 30 03.2          20.9 RoEX022291
         K14Wa8M KC2014 12 02.38698 04 28 06.00 +02 30 10.4          21.1 RoEX022291
         K14Wa8M KC2014 12 02.39073 04 28 05.40 +02 30 17.8          20.5 RoEX022291
    
    Observer details:
    291 LPL/Spacewatch II.  Observers A. F. Tubbiolo, R. S. McMillan.  1.8-m f/2.7
        reflector + CCD.
    F51 Pan-STARRS 1, Haleakala.  Observers B. Gibson, T. Goggia, N. Primak,
        A. Schultz, M. Willman.  Measurers K. Chambers, S. Chastel, L. Denneau,
        H. Flewelling, M. Huber, E. Magnier, E. Schunova, R. Wainscoat, C. Waters,
        R. Weryk.  1.8-m Ritchey-Chretien + CCD.
    
    Orbital elements:
    2014 WM368                                               Earth MOID = 0.1679 AU
    Epoch 2014 Dec. 9.0 TT = JDT 2457000.5                  MPC
    M 272.53586              (2000.0)            P               Q
    n   0.75572172     Peri.   82.61979     -0.96871670     -0.16034126
    a   1.1936989      Node    88.01841     +0.07390871     -0.91502000
    e   0.0825472      Incl.   10.92535     +0.23690811     -0.37017439
    P   1.30           H   23.2           G   0.15           U   7
    Residuals in seconds of arc
    141127 F51  0.0   0.0     141129 291  0.4+  0.3+    141202 291  0.1-  0.1-
    141127 F51  0.1+  0.1+    141129 291  0.2-  0.1-    141202 291  0.2+  0.2+
    141127 F51  0.1-  0.1-    141129 291  0.1-  0.1-
    141127 F51  0.0   0.1-    141202 291  0.0   0.2-
    
    Ephemeris:
    2014 WM368               a,e,i = 1.19, 0.08, 11                  q = 1.0952
    Date    TT    R. A. (2000) Decl.     Delta      r     Elong.  Phase     V
    2014 11 03    05 14 45.6 -05 08 37   0.3229  1.2412   134.9    34.5    22.6
    ...
    2014 11 18    04 59 26.5 -03 04 59   0.2653  1.2239   149.1    24.5    21.9
    ...
    2014 11 26    04 43 38.5 -00 28 27   0.2429  1.2140   156.7    18.7    21.5
    ...
    2014 12 02    04 29 06.6 +02 18 19   0.2314  1.2065   160.4    15.9    21.3
    2014 12 03    04 26 32.6 +02 50 03   0.2299  1.2052   160.7    15.7    21.3
    2014 12 04    04 23 57.0 +03 22 49   0.2286  1.2039   160.8    15.6    21.3
    ...
    2014 12 10    04 08 08.1 +06 58 35   0.2237  1.1962   158.8    17.3    21.2
    ...
    2014 12 18    03 48 05.1 +12 19 42   0.2250  1.1858   150.9    23.8    21.4
    ...
    2015 01 02    03 22 21.5 +22 20 29   0.2483  1.1663   132.8    38.2    22.0
    
    A. U. Tomatic                (C) Copyright 2014 MPC           M.P.E.C. 2014-X22
    

    Read MPEC 2014-X21 Read MPEC 2014-X23


    MPEC number:

    Enter an MPEC number in one of the following forms:

    • 1997-B01 (the full form)
    • J97B01 (the packed version of the full form)
    • B01 (the abbreviated form)